星链-32789 (STARLINK-32789)

导读

STARLINK-32789是美国SpaceX公司星链(Starlink)项目的一颗低轨卫星,于北京时间2025年1月8日发射升空。星链项目旨在构建全球卫星互联网星座,为全球偏远地区、海洋空域等场景提供高速网络接入服务。该卫星的成功发射,进一步扩大了星链星座的规模,推进了星链全球组网的部署进程。

基本信息
目录编号:
62529
目录名称:
STARLINK-32789
国际标识:
2025-004U
轨道中心:
EARTH
卫星名称:
星链-32789
卫星全名:
星链-32789 (STARLINK-32789)
卫星状态:
在轨 (已飞行604 天)
发射日期:
2025-01-08 UTC
国别 :
美国 (US)
星等 :
--
轨道信息
数据来源 国际轨道数据
星历时间: 2026-09-04T12:05:35+0800
10小时前
查看轨道信息
半长轴: 6861.158km
偏心率: 0.0000996
轨道倾角: 43.000°
近地点辐角 268.531°
升交点赤经 292.012°
平近点角 91.543°
近地点: 482.337km
远地点: 483.705km
周期: 94.266分钟
每日圈数: 15.275894
详细信息
固有亮度:
5
最大亮度:
2.5
卫星平台:
Starlink V1.0
覆盖范围:
全球
运营商:
太空探索技术公司
运营商所在国:
美国
制造商(研发单位):
太空探索技术公司
制造商所在国:
美国
使用方式:
暂无
卫星简介
Starlink 计划是 SpaceX 推出的全球卫星互联网项目,通过发射低轨道卫星,为全球尤其是偏远地区提供高速、低延迟的互联网服务。自 2019 年起,Starlink 已部署数千颗卫星,旨在缩小全球数字鸿沟,推动互联网普及。该项目还为军事、航空等行业提供通信支持,带来广泛经济效益。
2D轨道图
3D轨道图
轨道高度分析图
轨道倾角分析图
轨道综合分析图
查看轨道综合分析图
交会数据列表
事件ID 空间交会对象 最接近时刻(TCA) 交会距离 交会风险概率(CRP) 交会风险指数(CRI) 操作
CDM_260903-164806-252906-260121
2026-09-03T
16:48:40+0000
1.610 km
极远距离
2.626896E-6 低风险 0.43